User: anonymous   Login
Location: Hoyos del Collado
(40.3594°N, 5.2003°W)
Time: 20:12:17
(UTC+00:00)
Language:

SPOT 3 Rocket - Orbit

View from above orbital plane
View from above orbital plane
View from above satellite
View from above satellite

Ground track
Ground track

The orbit data is extracted from the following two-line orbital elements,

1 22830U 93061H   24171.79422110  .00000289  00000-0  12353-3 0  9991
2 22830  98.5709 239.3905 0010356 346.4759  13.6146 14.32135825604206
Epoch (UTC): 19 June 2024 19:03:40
Eccentricity: 0.0010356
inclination: 98.5709°
perigee height: 777 km
apogee height: 792 km
right ascension of ascending node: 239.3905°
argument of perigee: 346.4759°
revolutions per day: 14.32135825
mean anomaly at epoch: 13.6146°
orbit number at epoch: 60420

The dashed part of the orbit path shows where the satellite is in the earth's shadow,  

DLR